Location: Chassagnes
(44.4047°N, 4.1657°E)
Time: 12:58:11
(UTC+00:00)

ATLAS 5 CENTAUR R/B - Pass Details

Date: 27 October 2020
Orbit: 531 x 1127 km, 63.4° (Epoch: 22 November)

Event Time Altitude Azimuth Distance (km) Brightness Sun altitude
Rises 17:00:58 0° 273° (W) 2,772 6.7 -4.5°
Reaches altitude 10° 17:03:58 10° 298° (WNW) 1,953 4.9 -5.1°
Maximum altitude 17:06:32 15° 334° (NNW) 1,722 4.0 -5.5°
Drops below altitude 10° 17:09:17 10° 10° (N) 2,129 4.1 -6.0°
Sets 17:12:49 0° 33° (NNE) 3,186 4.8 -6.6°
